Wetterdaten: Samstag, 12.06.2010
Datum Zeit Temp. A. Feuchte A. Luftdruck Regen Wind Richtung Richtung Sonnenschein UV Solar Windben
12.06.2010 00:00 15,0 C 83 % 1004,5 hPa 0,0 mm 0,0 km/h (0 Bft) SW 225 0 min 0 UV-I 0 W/m 4,0 km/h (1 Bft)
12.06.2010 00:10 16,0 C 83 % 1004,5 hPa 0,0 mm 1,0 km/h (0 Bft) SW 225 0 min 0 UV-I 0 W/m 4,0 km/h (1 Bft)
12.06.2010 00:20 16,0 C 83 % 1004,5 hPa 0,0 mm 0,0 km/h (0 Bft) S-SW 202 0 min 0 UV-I 0 W/m 4,0 km/h (1 Bft)
12.06.2010 00:30 16,0 C 83 % 1004,5 hPa 0,0 mm 1,0 km/h (0 Bft) SW 225 0 min 0 UV-I 0 W/m 6,0 km/h (2 Bft)
12.06.2010 00:40 16,0 C 83 % 1004,5 hPa 0,0 mm 1,0 km/h (0 Bft) S-SW 202 0 min 0 UV-I 0 W/m 6,0 km/h (2 Bft)
12.06.2010 00:50 16,0 C 83 % 1004,5 hPa 0,0 mm 1,0 km/h (0 Bft) SW 225 0 min 0 UV-I 0 W/m 9,0 km/h (2 Bft)
12.06.2010 01:00 16,0 C 83 % 1004,5 hPa 0,0 mm 3,0 km/h (1 Bft) W-SW 247 0 min 0 UV-I 0 W/m 9,0 km/h (2 Bft)
12.06.2010 01:10 16,0 C 83 % 1004,5 hPa 0,0 mm 3,0 km/h (1 Bft) W 270 0 min 0 UV-I 0 W/m 9,0 km/h (2 Bft)
12.06.2010 01:20 16,0 C 82 % 1004,5 hPa 0,0 mm 3,0 km/h (1 Bft) W-SW 247 0 min 0 UV-I 0 W/m 8,0 km/h (2 Bft)
12.06.2010 01:30 16,0 C 82 % 1004,5 hPa 0,0 mm 1,0 km/h (0 Bft) W 270 0 min 0 UV-I 0 W/m 6,0 km/h (2 Bft)
12.06.2010 01:40 16,0 C 82 % 1004,5 hPa 0,0 mm 1,0 km/h (0 Bft) W 270 0 min 0 UV-I 0 W/m 8,0 km/h (2 Bft)
12.06.2010 01:50 15,0 C 83 % 1004,5 hPa 0,0 mm 0,0 km/h (0 Bft) W 270 0 min 0 UV-I 0 W/m 3,0 km/h (1 Bft)
12.06.2010 02:00 15,0 C 83 % 1004,5 hPa 0,0 mm 0,0 km/h (0 Bft) W 270 0 min 0 UV-I 0 W/m 4,0 km/h (1 Bft)
12.06.2010 02:10 15,0 C 83 % 1004,5 hPa 0,0 mm 1,0 km/h (0 Bft) W 270 0 min 0 UV-I 0 W/m 4,0 km/h (1 Bft)
12.06.2010 02:20 15,0 C 84 % 1004,5 hPa 0,0 mm 1,0 km/h (0 Bft) W 270 0 min 0 UV-I 0 W/m 8,0 km/h (2 Bft)
12.06.2010 02:30 15,0 C 83 % 1004,5 hPa 0,0 mm 1,0 km/h (0 Bft) S-SW 202 0 min 0 UV-I 0 W/m 8,0 km/h (2 Bft)
12.06.2010 02:40 15,0 C 84 % 1004,5 hPa 0,0 mm 1,0 km/h (0 Bft) W-SW 247 0 min 0 UV-I 0 W/m 6,0 km/h (2 Bft)
12.06.2010 02:50 15,0 C 84 % 1004,5 hPa 0,0 mm 1,0 km/h (0 Bft) W-SW 247 0 min 0 UV-I 0 W/m 4,0 km/h (1 Bft)
12.06.2010 03:00 15,0 C 84 % 1004,5 hPa 0,0 mm 1,0 km/h (0 Bft) W-SW 247 0 min 0 UV-I 0 W/m 6,0 km/h (2 Bft)
12.06.2010 03:10 15,0 C 83 % 1004,5 hPa 0,0 mm 1,0 km/h (0 Bft) W-SW 247 0 min 0 UV-I 0 W/m 6,0 km/h (2 Bft)
12.06.2010 03:20 15,0 C 84 % 1004,5 hPa 0,0 mm 0,0 km/h (0 Bft) W-SW 247 0 min 0 UV-I 0 W/m 3,0 km/h (1 Bft)
12.06.2010 03:30 15,0 C 85 % 1004,5 hPa 0,0 mm 0,0 km/h (0 Bft) W-SW 247 0 min 0 UV-I 0 W/m 3,0 km/h (1 Bft)
12.06.2010 03:40 15,0 C 85 % 1004,5 hPa 0,0 mm 1,0 km/h (0 Bft) W-SW 247 0 min 0 UV-I 0 W/m 6,0 km/h (2 Bft)
12.06.2010 03:50 15,0 C 85 % 1004,5 hPa 0,0 mm 1,0 km/h (0 Bft) W-SW 247 0 min 0 UV-I 0 W/m 6,0 km/h (2 Bft)
12.06.2010 04:00 15,0 C 85 % 1005,0 hPa 0,0 mm 1,0 km/h (0 Bft) W 270 0 min 0 UV-I 0 W/m 9,0 km/h (2 Bft)
12.06.2010 04:10 15,0 C 84 % 1005,0 hPa 0,0 mm 3,0 km/h (1 Bft) W 270 0 min 0 UV-I 0 W/m 12,0 km/h (2 Bft)
12.06.2010 04:20 15,0 C 84 % 1005,0 hPa 0,0 mm 4,0 km/h (1 Bft) W 270 0 min 0 UV-I 0 W/m 14,0 km/h (3 Bft)
12.06.2010 04:30 15,0 C 84 % 1005,0 hPa 0,0 mm 1,0 km/h (0 Bft) W 270 0 min 0 UV-I 0 W/m 8,0 km/h (2 Bft)
12.06.2010 04:40 15,0 C 83 % 1005,0 hPa 0,0 mm 1,0 km/h (0 Bft) W 270 0 min 0 UV-I 0 W/m 6,0 km/h (2 Bft)
12.06.2010 04:50 15,0 C 82 % 1005,0 hPa 0,0 mm 1,0 km/h (0 Bft) W-NW 292 0 min 0 UV-I 0 W/m 8,0 km/h (2 Bft)
12.06.2010 05:00 15,0 C 81 % 1005,0 hPa 0,0 mm 1,0 km/h (0 Bft) W-NW 292 0 min 0 UV-I 0 W/m 6,0 km/h (2 Bft)
12.06.2010 05:10 15,0 C 82 % 1005,0 hPa 0,0 mm 1,0 km/h (0 Bft) N-NW 337 0 min 0 UV-I 0 W/m 8,0 km/h (2 Bft)
12.06.2010 05:20 15,0 C 82 % 1005,0 hPa 0,0 mm 0,0 km/h (0 Bft) W 270 0 min 0 UV-I 5 W/m 4,0 km/h (1 Bft)
12.06.2010 05:30 15,0 C 82 % 1005,0 hPa 0,0 mm 1,0 km/h (0 Bft) W 270 0 min 0 UV-I 14 W/m 6,0 km/h (2 Bft)
12.06.2010 05:40 15,0 C 82 % 1005,0 hPa 0,0 mm 1,0 km/h (0 Bft) W 270 0 min 0 UV-I 18 W/m 8,0 km/h (2 Bft)
12.06.2010 05:50 15,0 C 82 % 1005,0 hPa 0,0 mm 1,0 km/h (0 Bft) W 270 0 min 0 UV-I 19 W/m 14,0 km/h (3 Bft)
12.06.2010 06:00 15,0 C 82 % 1005,0 hPa 0,0 mm 1,0 km/h (0 Bft) W 270 0 min 0 UV-I 39 W/m 6,0 km/h (2 Bft)
12.06.2010 06:10 15,0 C 82 % 1005,0 hPa 0,0 mm 0,0 km/h (0 Bft) W 270 0 min 0 UV-I 56 W/m 1,0 km/h (0 Bft)
12.06.2010 06:20 15,0 C 83 % 1005,0 hPa 0,0 mm 0,0 km/h (0 Bft) W 270 0 min 0 UV-I 54 W/m 3,0 km/h (1 Bft)
12.06.2010 06:30 15,0 C 82 % 1005,0 hPa 0,0 mm 1,0 km/h (0 Bft) W 270 0 min 0 UV-I 40 W/m 6,0 km/h (2 Bft)
12.06.2010 06:40 15,0 C 83 % 1005,0 hPa 0,0 mm 0,0 km/h (0 Bft) W-NW 292 0 min 0 UV-I 51 W/m 3,0 km/h (1 Bft)
12.06.2010 06:50 15,0 C 83 % 1005,0 hPa 0,0 mm 1,0 km/h (0 Bft) NW 315 0 min 0 UV-I 105 W/m 8,0 km/h (2 Bft)
12.06.2010 07:00 15,0 C 82 % 1005,0 hPa 0,0 mm 1,0 km/h (0 Bft) N-NW 337 0 min 0 UV-I 123 W/m 6,0 km/h (2 Bft)
12.06.2010 07:10 15,0 C 82 % 1005,0 hPa 0,0 mm 1,0 km/h (0 Bft) W-NW 292 0 min 0 UV-I 35 W/m 8,0 km/h (2 Bft)
12.06.2010 07:20 15,0 C 82 % 1005,0 hPa 0,0 mm 1,0 km/h (0 Bft) NW 315 0 min 0 UV-I 65 W/m 9,0 km/h (2 Bft)
12.06.2010 07:30 15,0 C 83 % 1005,0 hPa 0,0 mm 1,0 km/h (0 Bft) NW 315 0 min 1 UV-I 79 W/m 8,0 km/h (2 Bft)
12.06.2010 07:40 15,0 C 82 % 1005,0 hPa 0,0 mm 1,0 km/h (0 Bft) W-NW 292 0 min 1 UV-I 95 W/m 6,0 km/h (2 Bft)
12.06.2010 07:50 15,0 C 81 % 1005,0 hPa 0,0 mm 1,0 km/h (0 Bft) W-NW 292 0 min 1 UV-I 72 W/m 11,0 km/h (2 Bft)
12.06.2010 08:00 15,0 C 81 % 1005,0 hPa 0,0 mm 4,0 km/h (1 Bft) W-SW 245 0 min 1 UV-I 73 W/m 9,0 km/h (2 Bft)
12.06.2010 08:10 15,0 C 81 % 1005,0 hPa 0,0 mm 3,0 km/h (1 Bft) W 270 0 min 1 UV-I 100 W/m 8,0 km/h (2 Bft)
12.06.2010 08:20 15,0 C 80 % 1005,0 hPa 0,0 mm 1,0 km/h (0 Bft) W-NW 292 0 min 1 UV-I 98 W/m 8,0 km/h (2 Bft)
12.06.2010 08:30 15,0 C 80 % 1005,0 hPa 0,0 mm 3,0 km/h (1 Bft) W 270 0 min 1 UV-I 116 W/m 8,0 km/h (2 Bft)
12.06.2010 08:40 15,0 C 80 % 1005,0 hPa 0,0 mm 1,0 km/h (0 Bft) W 270 0 min 1 UV-I 81 W/m 9,0 km/h (2 Bft)
12.06.2010 08:50 15,0 C 80 % 1005,0 hPa 0,0 mm 1,0 km/h (0 Bft) W 270 0 min 0 UV-I 42 W/m 6,0 km/h (2 Bft)
12.06.2010 09:00 15,0 C 81 % 1005,0 hPa 0,0 mm 1,0 km/h (0 Bft) W-SW 247 0 min 0 UV-I 40 W/m 6,0 km/h (2 Bft)
12.06.2010 09:10 15,0 C 81 % 1005,0 hPa 0,0 mm 1,0 km/h (0 Bft) W-NW 292 0 min 0 UV-I 39 W/m 6,0 km/h (2 Bft)
12.06.2010 09:20 15,0 C 83 % 1005,0 hPa 0,0 mm 0,0 km/h (0 Bft) W-NW 292 0 min 0 UV-I 49 W/m 3,0 km/h (1 Bft)
12.06.2010 09:30 15,0 C 83 % 1005,0 hPa 0,0 mm 0,0 km/h (0 Bft) W-NW 292 0 min 1 UV-I 62 W/m 3,0 km/h (1 Bft)
12.06.2010 09:40 15,0 C 85 % 1004,7 hPa 0,0 mm 0,0 km/h (0 Bft) W-NW 292 0 min 1 UV-I 81 W/m 1,0 km/h (0 Bft)
12.06.2010 09:50 14,0 C 85 % 1004,7 hPa 0,0 mm 0,0 km/h (0 Bft) W-NW 292 0 min 1 UV-I 113 W/m 3,0 km/h (1 Bft)
12.06.2010 10:00 14,0 C 87 % 1004,6 hPa 0,0 mm 0,0 km/h (0 Bft) W-NW 292 0 min 1 UV-I 98 W/m 1,0 km/h (0 Bft)
12.06.2010 10:10 15,0 C 87 % 1004,6 hPa 0,0 mm 0,0 km/h (0 Bft) W-NW 292 0 min 1 UV-I 134 W/m 3,0 km/h (1 Bft)
12.06.2010 10:20 15,0 C 87 % 1004,6 hPa 0,0 mm 0,0 km/h (0 Bft) W-NW 292 0 min 1 UV-I 105 W/m 3,0 km/h (1 Bft)
12.06.2010 10:30 15,0 C 86 % 1004,6 hPa 0,0 mm 0,0 km/h (0 Bft) W 270 0 min 1 UV-I 77 W/m 3,0 km/h (1 Bft)
12.06.2010 10:40 14,0 C 86 % 1004,1 hPa 0,0 mm 0,0 km/h (0 Bft) W 270 0 min 1 UV-I 79 W/m 1,0 km/h (0 Bft)
12.06.2010 10:50 14,0 C 87 % 1004,1 hPa 0,0 mm 0,0 km/h (0 Bft) W 270 0 min 1 UV-I 95 W/m 1,0 km/h (0 Bft)
12.06.2010 11:00 14,0 C 86 % 1004,1 hPa 0,0 mm 0,0 km/h (0 Bft) W 270 0 min 1 UV-I 93 W/m 1,0 km/h (0 Bft)
12.06.2010 11:10 15,0 C 86 % 1004,1 hPa 0,0 mm 0,0 km/h (0 Bft) W-SW 247 0 min 1 UV-I 69 W/m 4,0 km/h (1 Bft)
12.06.2010 11:20 15,0 C 85 % 1004,1 hPa 0,0 mm 0,0 km/h (0 Bft) W-SW 247 0 min 1 UV-I 97 W/m 3,0 km/h (1 Bft)
12.06.2010 11:30 15,0 C 86 % 1004,1 hPa 0,0 mm 0,0 km/h (0 Bft) W-SW 247 0 min 1 UV-I 79 W/m 6,0 km/h (2 Bft)
12.06.2010 11:40 15,0 C 84 % 1004,1 hPa 0,0 mm 0,0 km/h (0 Bft) W 270 0 min 1 UV-I 76 W/m 4,0 km/h (1 Bft)
12.06.2010 11:50 15,0 C 84 % 1004,1 hPa 0,0 mm 0,0 km/h (0 Bft) N-NW 337 0 min 1 UV-I 95 W/m 4,0 km/h (1 Bft)
12.06.2010 12:00 15,0 C 83 % 1004,1 hPa 0,0 mm 0,0 km/h (0 Bft) N-NW 337 0 min 1 UV-I 95 W/m 3,0 km/h (1 Bft)
12.06.2010 12:10 15,0 C 82 % 1004,1 hPa 0,0 mm 0,0 km/h (0 Bft) N-NW 337 0 min 1 UV-I 100 W/m 1,0 km/h (0 Bft)
12.06.2010 12:20 15,0 C 83 % 1004,1 hPa 0,0 mm 0,0 km/h (0 Bft) N-NW 337 0 min 1 UV-I 139 W/m 1,0 km/h (0 Bft)
12.06.2010 12:30 15,0 C 82 % 1004,1 hPa 0,0 mm 0,0 km/h (0 Bft) N-NW 337 0 min 1 UV-I 114 W/m 3,0 km/h (1 Bft)
12.06.2010 12:40 15,0 C 83 % 1004,2 hPa 0,0 mm 0,0 km/h (0 Bft) N-NW 337 0 min 1 UV-I 104 W/m 4,0 km/h (1 Bft)
12.06.2010 12:50 15,0 C 82 % 1004,2 hPa 0,0 mm 1,0 km/h (0 Bft) NW 315 0 min 1 UV-I 95 W/m 6,0 km/h (2 Bft)
12.06.2010 13:00 15,0 C 83 % 1004,2 hPa 0,0 mm 0,0 km/h (0 Bft) NW 315 0 min 1 UV-I 95 W/m 3,0 km/h (1 Bft)
12.06.2010 13:10 14,0 C 82 % 1004,2 hPa 0,0 mm 0,0 km/h (0 Bft) NW 315 0 min 1 UV-I 84 W/m 3,0 km/h (1 Bft)
12.06.2010 13:20 14,0 C 81 % 1005,0 hPa 0,0 mm 0,0 km/h (0 Bft) NW 315 0 min 1 UV-I 84 W/m 4,0 km/h (1 Bft)
12.06.2010 13:30 14,0 C 81 % 1005,6 hPa 0,3 mm 0,0 km/h (0 Bft) NW 315 0 min 1 UV-I 72 W/m 4,0 km/h (1 Bft)
12.06.2010 13:40 14,0 C 83 % 1005,5 hPa 0,3 mm 1,0 km/h (0 Bft) NW 315 0 min 1 UV-I 74 W/m 11,0 km/h (2 Bft)
12.06.2010 13:50 14,0 C 83 % 1005,5 hPa 0,0 mm 3,0 km/h (1 Bft) W-NW 292 0 min 1 UV-I 109 W/m 11,0 km/h (2 Bft)
12.06.2010 14:00 13,0 C 83 % 1003,5 hPa 0,0 mm 0,0 km/h (0 Bft) NW 315 0 min 1 UV-I 128 W/m 3,0 km/h (1 Bft)
12.06.2010 14:10 13,0 C 85 % 1005,1 hPa 0,0 mm 0,0 km/h (0 Bft) NW 315 0 min 2 UV-I 149 W/m 3,0 km/h (1 Bft)
12.06.2010 14:20 13,0 C 85 % 1004,1 hPa 0,3 mm 1,0 km/h (0 Bft) S-SW 202 0 min 2 UV-I 155 W/m 6,0 km/h (2 Bft)
12.06.2010 14:30 13,0 C 84 % 1004,1 hPa 0,0 mm 0,0 km/h (0 Bft) S-SW 202 0 min 1 UV-I 120 W/m 6,0 km/h (2 Bft)
12.06.2010 14:40 13,0 C 84 % 1004,1 hPa 0,0 mm 1,0 km/h (0 Bft) S-SW 202 0 min 1 UV-I 88 W/m 6,0 km/h (2 Bft)
12.06.2010 14:50 13,0 C 85 % 1004,1 hPa 0,0 mm 0,0 km/h (0 Bft) S-SW 202 0 min 1 UV-I 74 W/m 4,0 km/h (1 Bft)
12.06.2010 15:00 13,0 C 86 % 1003,3 hPa 0,0 mm 0,0 km/h (0 Bft) S-SW 202 0 min 1 UV-I 74 W/m 4,0 km/h (1 Bft)
12.06.2010 15:10 13,0 C 86 % 1004,3 hPa 0,3 mm 1,0 km/h (0 Bft) S-SW 202 0 min 1 UV-I 114 W/m 6,0 km/h (2 Bft)
12.06.2010 15:20 13,0 C 87 % 1004,3 hPa 0,0 mm 1,0 km/h (0 Bft) S 180 0 min 1 UV-I 163 W/m 11,0 km/h (2 Bft)
12.06.2010 15:30 13,0 C 87 % 1004,3 hPa 0,0 mm 1,0 km/h (0 Bft) S 180 0 min 2 UV-I 176 W/m 6,0 km/h (2 Bft)
12.06.2010 15:40 13,0 C 86 % 1004,9 hPa 0,0 mm 1,0 km/h (0 Bft) S-SW 202 0 min 1 UV-I 123 W/m 9,0 km/h (2 Bft)
12.06.2010 15:50 13,0 C 87 % 1008,4 hPa 0,0 mm 1,0 km/h (0 Bft) S-SW 202 0 min 1 UV-I 104 W/m 6,0 km/h (2 Bft)
12.06.2010 16:00 13,0 C 86 % 1008,7 hPa 0,0 mm 0,8 km/h (0 Bft) SW 220 0 min 1 UV-I 115 W/m 4,0 km/h (1 Bft)
12.06.2010 16:10 13,0 C 87 % 1009,5 hPa 0,0 mm 0,0 km/h (0 Bft) W-SW 247 0 min 1 UV-I 167 W/m 8,0 km/h (2 Bft)
12.06.2010 16:20 13,0 C 85 % 1008,5 hPa 0,0 mm 1,0 km/h (0 Bft) S 180 0 min 2 UV-I 185 W/m 8,0 km/h (2 Bft)
12.06.2010 16:30 13,0 C 85 % 1008,5 hPa 0,0 mm 1,0 km/h (0 Bft) S-SW 202 0 min 1 UV-I 158 W/m 6,0 km/h (2 Bft)
12.06.2010 16:40 13,0 C 85 % 1008,6 hPa 0,0 mm 0,0 km/h (0 Bft) S-SW 202 0 min 1 UV-I 160 W/m 4,0 km/h (1 Bft)
12.06.2010 16:50 13,0 C 86 % 1007,5 hPa 0,0 mm 1,0 km/h (0 Bft) SW 225 0 min 1 UV-I 90 W/m 6,0 km/h (2 Bft)
12.06.2010 17:00 13,0 C 86 % 1005,6 hPa 0,5 mm 1,0 km/h (0 Bft) SW 225 0 min 1 UV-I 95 W/m 4,0 km/h (1 Bft)
12.06.2010 17:10 13,0 C 88 % 1005,6 hPa 0,0 mm 0,0 km/h (0 Bft) SW 225 0 min 1 UV-I 88 W/m 6,0 km/h (2 Bft)
12.06.2010 17:20 13,0 C 87 % 1005,1 hPa 0,0 mm 1,0 km/h (0 Bft) SW 225 0 min 1 UV-I 86 W/m 8,0 km/h (2 Bft)
12.06.2010 17:30 13,0 C 87 % 1008,1 hPa 0,0 mm 0,0 km/h (0 Bft) SW 225 0 min 1 UV-I 83 W/m 3,0 km/h (1 Bft)
12.06.2010 17:40 13,0 C 87 % 1008,3 hPa 0,3 mm 1,0 km/h (0 Bft) SW 225 0 min 1 UV-I 86 W/m 8,0 km/h (2 Bft)
12.06.2010 17:50 13,0 C 87 % 1008,9 hPa 0,0 mm 1,0 km/h (0 Bft) SW 225 0 min 1 UV-I 100 W/m 4,0 km/h (1 Bft)
12.06.2010 18:00 13,0 C 87 % 1010,6 hPa 0,0 mm 0,0 km/h (0 Bft) SW 225 0 min 1 UV-I 105 W/m 3,0 km/h (1 Bft)
12.06.2010 18:10 13,0 C 87 % 1009,3 hPa 0,0 mm 0,0 km/h (0 Bft) SW 225 0 min 1 UV-I 113 W/m 6,0 km/h (2 Bft)
12.06.2010 18:20 13,0 C 86 % 1008,0 hPa 0,0 mm 1,0 km/h (0 Bft) SW 225 0 min 1 UV-I 95 W/m 6,0 km/h (2 Bft)
12.06.2010 18:30 13,0 C 85 % 1008,0 hPa 0,0 mm 1,0 km/h (0 Bft) SW 225 0 min 1 UV-I 93 W/m 6,0 km/h (2 Bft)
12.06.2010 18:40 13,0 C 84 % 1006,7 hPa 0,0 mm 1,0 km/h (0 Bft) W 270 0 min 1 UV-I 91 W/m 6,0 km/h (2 Bft)
12.06.2010 18:50 13,0 C 84 % 1010,3 hPa 0,0 mm 0,0 km/h (0 Bft) W 270 0 min 1 UV-I 95 W/m 1,0 km/h (0 Bft)
12.06.2010 19:00 13,0 C 85 % 1010,0 hPa 0,0 mm 1,0 km/h (0 Bft) W 270 0 min 1 UV-I 93 W/m 6,0 km/h (2 Bft)
12.06.2010 19:10 13,0 C 84 % 1010,9 hPa 0,0 mm 1,0 km/h (0 Bft) W-SW 247 0 min 1 UV-I 105 W/m 6,0 km/h (2 Bft)
12.06.2010 19:20 13,0 C 85 % 1010,5 hPa 0,0 mm 0,0 km/h (0 Bft) W-SW 247 0 min 1 UV-I 142 W/m 3,0 km/h (1 Bft)
12.06.2010 19:30 14,0 C 84 % 1011,1 hPa 0,0 mm 0,0 km/h (0 Bft) W-SW 247 10 min 1 UV-I 269 W/m 4,0 km/h (1 Bft)
12.06.2010 19:40 14,0 C 83 % 1011,3 hPa 0,0 mm 1,0 km/h (0 Bft) W-SW 247 10 min 1 UV-I 220 W/m 6,0 km/h (2 Bft)
12.06.2010 19:50 14,0 C 83 % 1011,4 hPa 0,0 mm 1,0 km/h (0 Bft) W 270 0 min 1 UV-I 134 W/m 4,0 km/h (1 Bft)
12.06.2010 20:00 14,0 C 83 % 1011,5 hPa 0,0 mm 1,0 km/h (0 Bft) W 270 10 min 1 UV-I 229 W/m 6,0 km/h (2 Bft)
12.06.2010 20:10 14,0 C 83 % 1011,6 hPa 0,0 mm 1,0 km/h (0 Bft) W 270 10 min 1 UV-I 225 W/m 4,0 km/h (1 Bft)
12.06.2010 20:20 15,0 C 82 % 1011,7 hPa 0,0 mm 1,0 km/h (0 Bft) W 270 10 min 1 UV-I 185 W/m 6,0 km/h (2 Bft)
12.06.2010 20:30 14,0 C 83 % 1011,8 hPa 0,0 mm 1,0 km/h (0 Bft) W 270 0 min 0 UV-I 70 W/m 6,0 km/h (2 Bft)
12.06.2010 20:40 14,0 C 84 % 1011,8 hPa 0,0 mm 1,0 km/h (0 Bft) W 270 0 min 0 UV-I 58 W/m 9,0 km/h (2 Bft)
12.06.2010 20:50 14,0 C 85 % 1011,8 hPa 0,0 mm 0,0 km/h (0 Bft) W-SW 247 0 min 0 UV-I 46 W/m 1,0 km/h (0 Bft)
12.06.2010 21:00 14,0 C 85 % 1011,9 hPa 0,0 mm 0,0 km/h (0 Bft) W-SW 247 0 min 0 UV-I 21 W/m 1,0 km/h (0 Bft)
12.06.2010 21:10 14,0 C 86 % 1011,9 hPa 0,0 mm 0,0 km/h (0 Bft) W-SW 247 0 min 0 UV-I 16 W/m 1,0 km/h (0 Bft)
12.06.2010 21:20 14,0 C 87 % 1012,1 hPa 0,0 mm 0,0 km/h (0 Bft) W-SW 247 0 min 0 UV-I 16 W/m 3,0 km/h (1 Bft)
12.06.2010 21:30 13,0 C 87 % 1012,1 hPa 0,0 mm 0,0 km/h (0 Bft) W-SW 247 0 min 0 UV-I 11 W/m 1,0 km/h (0 Bft)
12.06.2010 21:40 13,0 C 88 % 1012,1 hPa 0,0 mm 0,0 km/h (0 Bft) W-SW 247 0 min 0 UV-I 0 W/m 1,0 km/h (0 Bft)
12.06.2010 21:50 13,0 C 88 % 1012,2 hPa 0,0 mm 0,0 km/h (0 Bft) W-SW 247 0 min 0 UV-I 0 W/m 4,0 km/h (1 Bft)
12.06.2010 22:00 13,0 C 88 % 1012,4 hPa 0,0 mm 1,0 km/h (0 Bft) W-SW 247 0 min 0 UV-I 0 W/m 4,0 km/h (1 Bft)
12.06.2010 22:10 13,0 C 89 % 1012,6 hPa 0,0 mm 1,0 km/h (0 Bft) W-SW 247 0 min 0 UV-I 0 W/m 6,0 km/h (2 Bft)
12.06.2010 22:20 13,0 C 89 % 1012,7 hPa 0,0 mm 1,0 km/h (0 Bft) W-SW 247 0 min 0 UV-I 0 W/m 9,0 km/h (2 Bft)
12.06.2010 22:30 13,0 C 89 % 1012,8 hPa 0,0 mm 0,0 km/h (0 Bft) W 270 0 min 0 UV-I 0 W/m 6,0 km/h (2 Bft)
12.06.2010 22:40 13,0 C 89 % 1012,9 hPa 0,0 mm 1,0 km/h (0 Bft) W 270 0 min 0 UV-I 0 W/m 6,0 km/h (2 Bft)
12.06.2010 22:50 13,0 C 87 % 1013,0 hPa 0,0 mm 0,0 km/h (0 Bft) W-NW 292 0 min 0 UV-I 0 W/m 4,0 km/h (1 Bft)
12.06.2010 23:00 12,0 C 87 % 1013,1 hPa 0,0 mm 0,0 km/h (0 Bft) W-NW 292 0 min 0 UV-I 0 W/m 1,0 km/h (0 Bft)
12.06.2010 23:10 12,0 C 88 % 1013,2 hPa 0,0 mm 0,0 km/h (0 Bft) W-NW 292 0 min 0 UV-I 0 W/m 6,0 km/h (2 Bft)
12.06.2010 23:20 12,0 C 86 % 1012,9 hPa 0,0 mm 1,0 km/h (0 Bft) W-NW 292 0 min 0 UV-I 0 W/m 6,0 km/h (2 Bft)
12.06.2010 23:30 12,0 C 84 % 1013,6 hPa 0,0 mm 1,0 km/h (0 Bft) W-NW 292 0 min 0 UV-I 0 W/m 6,0 km/h (2 Bft)
12.06.2010 23:40 12,0 C 82 % 1012,8 hPa 0,0 mm 1,0 km/h (0 Bft) W-NW 292 0 min 0 UV-I 0 W/m 8,0 km/h (2 Bft)
12.06.2010 23:50 12,0 C 81 % 1011,0 hPa 0,0 mm 1,0 km/h (0 Bft) W-NW 292 0 min 0 UV-I 0 W/m 9,0 km/h (2 Bft)
_ Min-Zeit 23:00 08:20 15:00 - 00:00 - - - - - 06:10
Minimum _ 12,0 C 80 % 1003,3 hPa - 0,0 km/h (0 Bft) - - - - - 1,0 km/h (0 Bft)
_ Max-Zeit 00:00 22:10 23:30 17:00 04:20 - - 19:30 14:10 19:30 04:20
Maximum _ 16,0 C 89 % 1013,6 hPa 0,5 mm 4,0 km/h
W (1 Bft)
- - 10 min 2 UV-I 269 W/m 14,0 km/h
W (3 Bft)
Durchschnitt _ 14,2 C 84 % 1006,6 hPa #1,8 mm 0,7 km/h (0 Bft) W - #50 min. 1 UV-I 95 W/m 5,5 km/h (1 Bft)